Alexandria, LA

5:00 PM CST on December 07, 2016 (GMT -0600)
Alexandria International

Weather History for KAEX - February, 2013

Change the Weather History Date:

Friday, February 8, 2013

  Actual Average Record
Temperature  
Mean Temperature 54 °F 50 °F  
Max Temperature 61 °F 61 °F 82 °F (1950)
Min Temperature 46 °F 40 °F 9 °F (1895)
Degree Days  
Heating Degree Days 11 15  
Month to date heating degree days 81 122  
Since 1 July heating degree days 1189 1413  
Growing Degree Days 3 (Base 50)    
Moisture  
Dew Point 53 °F    
Average Humidity 86    
Maximum Humidity 100    
Minimum Humidity 72    
Precipitation  
Precipitation 0.00 in 0.15 in 2.05 in (1946)
Month to date precipitation 0.31 1.23  
Year to date precipitation 11.36 6.45  
Snow  
Snow 0.00 in - T in (1988)
Month to date snowfall 0.0  
Since 1 July snowfall 0.0  
Snow Depth 0.00 in    
Sea Level Pressure  
Sea Level Pressure 30.09 in    
Wind  
Wind Speed 7 mph (North)    
Max Wind Speed 16 mph    
Max Gust Speed 22 mph    
Visibility 9 miles    
Events      
T = Trace of Precipitation, MM = Missing Value Source: NWS Daily Summary

Daily Weather History Graph

Daily Weather History Graph

Search for Another Location

Airport or City:

Trip Planner

Search our weather history database for the weather conditions in past years. The results will help you decide how hot, cold, wet, or windy it might be!

Date:

Astronomy

Feb. 08, 2013 Rise Set
Actual Time 6:57 AM CST 5:51 PM CST
Civil Twilight 6:32 AM CST 6:16 PM CST
Nautical Twilight 6:03 AM CST 6:45 PM CST
Astronomical Twilight 5:35 AM CST 7:14 PM CST
Moon 5:23 AM CST (2/8) 4:27 PM CST (2/8)
Length of Visible Light 11h 44m
Length of Day
10h 54m
Waning Crescent, 3% of the Moon is Illuminated
Feb 8
Waning Crescent
Feb 10
New
Feb 17
First Quarter
Feb 25
Full
Mar 4
Last Quarter

Hourly Weather History & Observations

Time (CST) Temp. Windchill Dew Point Humidity Pressure Visibility Wind Dir Wind Speed Gust Speed Precip Events Conditions
12:53 AM 60.1 °F - 57.9 °F 93% 29.97 in 10.0 mi Calm Calm - N/A   Overcast
1:42 AM 60.8 °F - 59.0 °F 94% 29.96 in 10.0 mi South 3.5 mph - N/A   Overcast
1:53 AM 60.1 °F - 59.0 °F 96% 29.97 in 10.0 mi South 3.5 mph - N/A   Overcast
2:53 AM 59.0 °F - 57.0 °F 93% 29.97 in 9.0 mi Calm Calm - N/A   Overcast
3:53 AM 57.9 °F - 57.0 °F 97% 29.98 in 7.0 mi Calm Calm - N/A   Partly Cloudy
4:06 AM 57.2 °F - 55.4 °F 94% 29.97 in 6.0 mi Calm Calm - N/A   Mostly Cloudy
4:19 AM 57.2 °F - 57.2 °F 100% 29.97 in 7.0 mi Calm Calm - N/A   Overcast
4:53 AM 59.0 °F - 57.9 °F 96% 29.99 in 7.0 mi Variable 3.5 mph - N/A   Overcast
5:21 AM 60.8 °F - 57.2 °F 88% 29.99 in 7.0 mi West 4.6 mph - N/A   Overcast
5:53 AM 60.1 °F - 57.9 °F 93% 30.01 in 9.0 mi NW 10.4 mph - N/A   Overcast
6:53 AM 60.1 °F - 57.0 °F 90% 30.04 in 10.0 mi WNW 9.2 mph - N/A   Overcast
7:05 AM 60.8 °F - 57.2 °F 88% 30.04 in 9.0 mi WNW 9.2 mph - N/A   Overcast
7:53 AM 59.0 °F - 57.0 °F 93% 30.07 in 7.0 mi NW 10.4 mph - N/A   Overcast
8:01 AM 59.0 °F - 57.2 °F 94% 30.06 in 7.0 mi NW 11.5 mph - N/A   Overcast
8:53 AM 59.0 °F - 57.0 °F 93% 30.10 in 6.0 mi NNW 11.5 mph - N/A   Overcast
9:02 AM 60.8 °F - 57.2 °F 88% 30.09 in 8.0 mi NNW 11.5 mph - N/A   Overcast
9:45 AM 60.8 °F - 53.6 °F 77% 30.11 in 10.0 mi North 12.7 mph - N/A   Overcast
9:53 AM 60.1 °F - 54.0 °F 80% 30.13 in 10.0 mi North 12.7 mph 17.3 mph N/A   Overcast
10:53 AM 60.1 °F - 53.1 °F 78% 30.16 in 10.0 mi North 11.5 mph 18.4 mph N/A   Overcast
11:53 AM 59.0 °F - 53.1 °F 81% 30.16 in 10.0 mi North 6.9 mph - N/A   Overcast
12:53 PM 59.0 °F - 52.0 °F 78% 30.15 in 10.0 mi NE 11.5 mph - N/A   Overcast
1:53 PM 55.9 °F - 51.1 °F 84% 30.15 in 10.0 mi North 12.7 mph - N/A   Overcast
2:27 PM 57.2 °F - 51.8 °F 82% 30.14 in 10.0 mi North 9.2 mph 17.3 mph N/A   Overcast
2:53 PM 57.0 °F - 50.0 °F 77% 30.15 in 10.0 mi NNE 12.7 mph - N/A   Overcast
3:53 PM 55.9 °F - 48.0 °F 75% 30.16 in 10.0 mi NE 10.4 mph - N/A   Overcast
4:53 PM 55.9 °F - 46.9 °F 72% 30.16 in 10.0 mi NE 5.8 mph - N/A   Overcast
5:45 PM 53.6 °F - 46.4 °F 77% 30.16 in 10.0 mi NE 3.5 mph - N/A   Partly Cloudy
5:53 PM 54.0 °F - 46.0 °F 75% 30.18 in 10.0 mi NE 4.6 mph - N/A   Partly Cloudy
6:53 PM 51.1 °F - 46.0 °F 83% 30.18 in 10.0 mi Calm Calm - N/A   Clear
7:53 PM 46.9 °F - 45.0 °F 93% 30.19 in 10.0 mi NNE 3.5 mph - N/A   Scattered Clouds
8:53 PM 50.0 °F - 45.0 °F 83% 30.20 in 10.0 mi NE 4.6 mph - N/A   Clear
9:53 PM 48.9 °F - 43.0 °F 80% 30.21 in 10.0 mi NE 5.8 mph - N/A   Clear
10:53 PM 46.9 °F - 42.1 °F 83% 30.20 in 10.0 mi NE 4.6 mph - N/A   Clear
11:53 PM 46.0 °F 42.5 °F 41.0 °F 83% 30.19 in 10.0 mi NE 6.9 mph - N/A   Clear